When you browse on this site, cookies collect data to enhance your experience and personalize the content and advertising you see.
Visit our Privacy Policy to learn more. By continuing to use the site, you agree to this use of cookies and data.
  • en Belgique
  • Liste des pays
  • À 7 jours
  • Température de l'eau
  • Carte météo
  • Widgets météo
  • user-avatar
    Se connecter

    Météo par heure à Melbourne

    Ce jour, 14 Décembre, Samedi

    Heure Température Précipitation Vent Pression Humidité
    00:00 +17°C° 0 mm 4 m/s 759 mmHg 76%
    01:00 +17°C° 0 mm 4 m/s 759 mmHg 77%
    02:00 +15°C° 0 mm 4 m/s 759 mmHg 77%
    03:00 +15°C° 0 mm 4 m/s 759 mmHg 77%
    04:00 +16°C° 0 mm 3 m/s 758 mmHg 74%
    05:00 +16°C° 0 mm 3 m/s 759 mmHg 73%
    06:00 +15°C° 0 mm 4 m/s 759 mmHg 72%
    07:00 +15°C° 0 mm 4 m/s 759 mmHg 71%
    08:00 +18°C° 0 mm 4 m/s 759 mmHg 66%
    09:00 +19°C° 0 mm 3 m/s 759 mmHg 62%
    10:00 +20°C° 0 mm 3 m/s 759 mmHg 58%
    11:00 +21°C° 0 mm 3 m/s 759 mmHg 56%
    12:00 +21°C° 0 mm 3 m/s 759 mmHg 54%
    13:00 +22°C° 0 mm 4 m/s 759 mmHg 52%
    14:00 +22°C° 0 mm 4 m/s 758 mmHg 52%
    15:00 +22°C° 0 mm 4 m/s 758 mmHg 53%
    16:00 +22°C° 0 mm 5 m/s 758 mmHg 53%
    17:00 +21°C° 0 mm 4 m/s 758 mmHg 59%
    18:00 +20°C° 0 mm 4 m/s 758 mmHg 64%
    19:00 +19°C° 0 mm 3 m/s 758 mmHg 70%
    20:00 +18°C° 0 mm 2 m/s 759 mmHg 75%
    21:00 +17°C° 0 mm 2 m/s 759 mmHg 79%
    22:00 +16°C° 0 mm 1 m/s 759 mmHg 83%
    23:00 +16°C° 0 mm 1 m/s 758 mmHg 85%

    Demain, 15 Décembre, Dimanche

    Heure Température Précipitation Vent Pression Humidité
    00:00 +16°C° 0 mm 1 m/s 758 mmHg 86%
    01:00 +15°C° 0 mm 1 m/s 757 mmHg 87%
    02:00 +15°C° 0 mm 1 m/s 757 mmHg 86%
    03:00 +15°C° 0 mm 2 m/s 756 mmHg 86%
    04:00 +15°C° 0 mm 2 m/s 756 mmHg 85%
    05:00 +16°C° 0 mm 2 m/s 756 mmHg 81%
    06:00 +18°C° 0 mm 1 m/s 756 mmHg 76%
    07:00 +18°C° 0 mm 1 m/s 756 mmHg 72%
    08:00 +21°C° 0 mm 1 m/s 756 mmHg 61%
    09:00 +23°C° 0 mm 2 m/s 756 mmHg 50%
    10:00 +25°C° 0 mm 2 m/s 755 mmHg 39%
    11:00 +26°C° 0 mm 2 m/s 755 mmHg 36%
    12:00 +27°C° 0 mm 2 m/s 755 mmHg 32%
    13:00 +28°C° 0 mm 3 m/s 754 mmHg 28%
    14:00 +27°C° 0 mm 3 m/s 754 mmHg 30%
    15:00 +27°C° 0 mm 4 m/s 754 mmHg 32%
    16:00 +26°C° 0 mm 5 m/s 754 mmHg 34%
    17:00 +25°C° 0 mm 4 m/s 754 mmHg 40%
    18:00 +22°C° 0 mm 4 m/s 755 mmHg 46%
    19:00 +21°C° 0 mm 3 m/s 755 mmHg 52%
    20:00 +19°C° 0 mm 2 m/s 756 mmHg 58%
    21:00 +18°C° 0 mm 2 m/s 756 mmHg 63%
    22:00 +17°C° 0 mm 2 m/s 757 mmHg 69%
    23:00 +16°C° 0 mm 2 m/s 757 mmHg 72%

    Après-demain, 16 Décembre, Lundi

    Heure Température Précipitation Vent Pression Humidité
    00:00 +15°C° 0 mm 1 m/s 757 mmHg 75%
    01:00 +15°C° 0 mm 1 m/s 757 mmHg 78%
    02:00 +15°C° 0 mm 1 m/s 757 mmHg 80%
    03:00 +14°C° 0 mm 1 m/s 757 mmHg 81%
    04:00 +14°C° 0 mm 1 m/s 757 mmHg 83%
    05:00 +15°C° 0 mm 1 m/s 758 mmHg 79%
    06:00 +16°C° 0 mm 1 m/s 758 mmHg 76%
    07:00 +18°C° 0 mm 1 m/s 759 mmHg 73%
    08:00 +20°C° 0 mm 1 m/s 759 mmHg 65%
    09:00 +21°C° 0 mm 1 m/s 759 mmHg 57%
    10:00 +23°C° 0 mm 2 m/s 759 mmHg 49%
    11:00 +24°C° 0 mm 2 m/s 759 mmHg 46%
    12:00 +25°C° 0 mm 3 m/s 759 mmHg 43%
    13:00 +27°C° 0 mm 3 m/s 759 mmHg 40%
    14:00 +26°C° 0 mm 4 m/s 759 mmHg 41%
    15:00 +26°C° 0 mm 4 m/s 759 mmHg 41%
    16:00 +26°C° 0 mm 5 m/s 759 mmHg 42%
    17:00 +25°C° 0 mm 4 m/s 760 mmHg 47%
    18:00 +23°C° 0 mm 4 m/s 760 mmHg 51%
    19:00 +21°C° 0 mm 3 m/s 761 mmHg 56%
    20:00 +20°C° 0 mm 3 m/s 761 mmHg 62%
    21:00 +19°C° 0 mm 2 m/s 762 mmHg 67%
    22:00 +17°C° 0 mm 2 m/s 762 mmHg 73%
    23:00 +18°C° 0 mm 1 m/s 762 mmHg 75%

    17 Décembre, Mardi

    Heure Température Précipitation Vent Pression Humidité
    00:00 +16°C° 0 mm 1 m/s 762 mmHg 78%
    01:00 +16°C° 0 mm 1 m/s 762 mmHg 80%
    02:00 +15°C° 0 mm 1 m/s 762 mmHg 81%
    03:00 +14°C° 0 mm 0 m/s 762 mmHg 83%
    04:00 +14°C° 0 mm 0 m/s 762 mmHg 84%
    05:00 +15°C° 0 mm 0 m/s 762 mmHg 78%
    06:00 +16°C° 0 mm 0 m/s 762 mmHg 73%
    07:00 +17°C° 0 mm 0 m/s 762 mmHg 67%
    08:00 +22°C° 0 mm 1 m/s 762 mmHg 57%
    09:00 +25°C° 0 mm 1 m/s 762 mmHg 48%
    10:00 +28°C° 0 mm 1 m/s 762 mmHg 38%
    11:00 +29°C° 0 mm 2 m/s 762 mmHg 35%
    12:00 +31°C° 0 mm 2 m/s 761 mmHg 31%
    13:00 +34°C° 0 mm 2 m/s 760 mmHg 27%
    14:00 +34°C° 0 mm 3 m/s 760 mmHg 28%
    15:00 +34°C° 0 mm 3 m/s 759 mmHg 28%
    16:00 +34°C° 0 mm 3 m/s 759 mmHg 29%
    17:00 +33°C° 0 mm 3 m/s 759 mmHg 34%
    18:00 +30°C° 0 mm 3 m/s 759 mmHg 39%
    19:00 +29°C° 0 mm 3 m/s 759 mmHg 45%
    20:00 +27°C° 0 mm 2 m/s 760 mmHg 51%
    21:00 +26°C° 0 mm 2 m/s 760 mmHg 56%
    22:00 +24°C° 0 mm 1 m/s 760 mmHg 62%
    23:00 +23°C° 0 mm 1 m/s 759 mmHg 63%

    18 Décembre, Mercredi

    Heure Température Précipitation Vent Pression Humidité
    00:00 +23°C° 0 mm 1 m/s 759 mmHg 65%
    01:00 +22°C° 0 mm 1 m/s 759 mmHg 66%
    02:00 +22°C° 0 mm 1 m/s 758 mmHg 64%
    03:00 +22°C° 0 mm 1 m/s 758 mmHg 62%
    04:00 +22°C° 0 mm 1 m/s 758 mmHg 60%
    05:00 +24°C° 0 mm 2 m/s 758 mmHg 52%
    06:00 +26°C° 0 mm 2 m/s 758 mmHg 45%
    07:00 +28°C° 0 mm 3 m/s 758 mmHg 37%
    08:00 +32°C° 0 mm 4 m/s 758 mmHg 31%
    09:00 +35°C° 0 mm 5 m/s 757 mmHg 25%
    10:00 +39°C° 0 mm 5 m/s 757 mmHg 19%
    11:00 +41°C° 0 mm 5 m/s 757 mmHg 17%
    12:00 +42°C° 0 mm 5 m/s 756 mmHg 14%
    13:00 +45°C° 0 mm 5 m/s 755 mmHg 12%
    14:00 +45°C° 0 mm 5 m/s 755 mmHg 11%
    15:00 +45°C° 0 mm 4 m/s 754 mmHg 10%
    16:00 +47°C° 0 mm 4 m/s 753 mmHg 9%
    17:00 +42°C° 0 mm 5 m/s 753 mmHg 15%
    18:00 +37°C° 0 mm 5 m/s 753 mmHg 21%
    19:00 +33°C° 0 mm 5 m/s 753 mmHg 27%
    20:00 +29°C° 0 mm 5 m/s 754 mmHg 34%
    21:00 +27°C° 0 mm 5 m/s 755 mmHg 41%
    22:00 +25°C° 0 mm 4 m/s 756 mmHg 48%
    23:00 +22°C° 0 mm 4 m/s 756 mmHg 53%

    19 Décembre, Jeudi

    Heure Température Précipitation Vent Pression Humidité
    00:00 +21°C° 0 mm 4 m/s 756 mmHg 58%
    01:00 +20°C° 0 mm 4 m/s 757 mmHg 63%
    02:00 +19°C° 0 mm 4 m/s 757 mmHg 66%
    03:00 +19°C° 0 mm 4 m/s 758 mmHg 69%
    04:00 +18°C° 0 mm 4 m/s 758 mmHg 72%
    05:00 +18°C° 0 mm 4 m/s 759 mmHg 72%
    06:00 +18°C° 0 mm 4 m/s 760 mmHg 72%
    07:00 +18°C° 0 mm 4 m/s 760 mmHg 72%
    08:00 +20°C° 0 mm 4 m/s 761 mmHg 64%
    09:00 +21°C° 0 mm 4 m/s 761 mmHg 57%
    10:00 +22°C° 0 mm 5 m/s 762 mmHg 49%
    11:00 +23°C° 0 mm 5 m/s 762 mmHg 43%
    12:00 +23°C° 0 mm 5 m/s 762 mmHg 37%
    13:00 +25°C° 0 mm 5 m/s 762 mmHg 31%
    14:00 +25°C° 0 mm 5 m/s 762 mmHg 33%
    15:00 +23°C° 0 mm 5 m/s 762 mmHg 35%
    16:00 +23°C° 0 mm 5 m/s 762 mmHg 37%
    17:00 +22°C° 0 mm 5 m/s 762 mmHg 42%
    18:00 +20°C° 0 mm 5 m/s 762 mmHg 47%
    19:00 +19°C° 0 mm 4 m/s 763 mmHg 52%
    20:00 +18°C° 0 mm 4 m/s 763 mmHg 59%
    21:00 +16°C° 0 mm 3 m/s 763 mmHg 65%
    22:00 +14°C° 0 mm 3 m/s 764 mmHg 72%
    23:00 +14°C° 0 mm 2 m/s 763 mmHg 75%
    Voir plus